Home   Weather   Maple Ridge   Past weeks
Flag for Canada

Past Weather in Maple Ridge, British Columbia, Canada — Yesterday and Last 2 Weeks

Now
37 °F

Chilly.


Feels Like: 37 °F
Forecast: 52 / 36 °F
Wind: 2 mph from East

Location: P. Meadows Coastal Station

Current Time: Apr 4, 2020 at 8:29:12 am

Latest Report: Apr 4, 2020 at 8:00 am


Visibility: N/A

Pressure: 29.91 "Hg

Humidity: 91%

Dew Point: 35 °F

Location of Maple RidgeLocation

Past Weather in Maple Ridge — Graph

°F

Maple Ridge Temperature Yesterday

Maximum temperature yesterday: 49 °F (at 4:00 pm)
Minimum temperature yesterday: 38 °F (at 11:00 pm)
Average temperature yesterday: 43 °F

High & Low Weather Summary for the Past Weeks

 TemperatureHumidityPressure
High60 °F (Mar 20, 4:00 pm)100% (Mar 20, 8:00 am)30.32 "Hg (Mar 20, 8:00 am)
Low32 °F (Mar 21, 7:00 am)37% (Apr 3, 3:00 pm)29.52 "Hg (Mar 30, 4:00 am)
Average44 °F78%30.00 "Hg
* Reported Mar 20 7:00 am — Apr 4 7:00 am, Maple Ridge. Weather by CustomWeather, © 2020

Note: Actual official high and low records may vary slightly from our data, if they occured in-between our weather recording intervals... More about our weather records

Maple Ridge Weather History for the Previous 24 Hours

Scroll right to see more
 ConditionsComfort  
Time TempWeatherWind HumidityBarometerVisibility
7:00 am
Sat, Apr 4
36 °FChilly.3 mph92%29.92 "HgN/A
6:00 am37 °FChilly.1 mph91%29.93 "HgN/A
5:00 am37 °FChilly.3 mph91%29.94 "HgN/A
4:00 am37 °FChilly.2 mph91%29.95 "HgN/A
3:00 am36 °FChilly.5 mph89%29.96 "HgN/A
2:00 am37 °FChilly.1 mph89%29.96 "HgN/A
1:00 am37 °FChilly.1 mph87%29.97 "HgN/A
12:00 am37 °FChilly.1 mph85%29.98 "HgN/A
11:00 pm
Fri, Apr 3
38 °FChilly.3 mph82%29.98 "HgN/A
10:00 pm39 °FChilly.1 mph79%29.99 "HgN/A
9:00 pm41 °FQuite cool.1 mph68%29.98 "HgN/A
8:00 pm42 °FQuite cool.1 mph66%29.98 "HgN/A
7:00 pm42 °FQuite cool.3 mph64%29.98 "HgN/A
6:00 pm46 °FCool.6 mph51%29.98 "HgN/A
5:00 pm47 °FCool.8 mph48%29.98 "HgN/A
4:00 pm49 °FCool.12 mph44%29.98 "HgN/A
3:00 pm49 °FCool.13 mph37%29.98 "HgN/A
2:00 pm48 °FCool.9 mph44%29.99 "HgN/A
1:00 pm45 °FCool.5 mph57%30.00 "HgN/A
12:00 pm44 °FQuite cool.10 mph53%30.02 "HgN/A
11:00 am43 °FQuite cool.12 mph67%30.02 "HgN/A
10:00 am43 °FQuite cool.9 mph65%30.02 "HgN/A
9:00 am41 °FQuite cool.3 mph74%30.03 "HgN/A
8:00 am38 °FChilly.2 mph89%30.04 "HgN/A
Weather by CustomWeather, © 2020

See weather overview

Advertising